Showing default

PERSEUS M2, 40037

Orbit data source: Space-Track

PERSEUS M2, 40037 is a payload satellite owned by Canopus Sys (CIS) in SSO that was launched on Thu, 19 Jun 2014 UTC via a DNEPR launch vehicle from the Orenburg, Russia (OREN). Payload-class satellites include a variety of spacecraft equipped with specific instruments for various scientific and technological missions. These include communications satellites like Starlink; space stations such as the ISS; scientific satellites like the Hubble; Earth observation satellites from companies like Planet Labs, Umbra, and HawkEye 360; GPS; miniature CubeSats for education and research; and military/defense satellites.

Loading next visibility...
Identifier
40037, 2014-033AD
Orbit
SSO
Country
Flag of CISCIS
Related business
None
Manufacturer
Canopus Sys
Mission
Operational Commercial Communications
Bus & Motor
CUBESAT 6U, Unknown motor
Mass
~10 kg wet, ~10 kg dry
Launch date (UTC)
2014-06-19 (11 years ago)
Launch vehicle
DNEPR
Launch site
Orenburg, Russia (OREN)
Object type
Payload
Rocket body
Debris
Shape & HBR
Box, 0.1 m
Radar Cross Section
0.105 m², Medium (>0.1 m² and < 1m²)

Expand to show TLE details & history
Last TLE update: 17 hours ago

TLE from 17 hours ago
0 PERSEUS M2
1 40037U 14033AD  25287.89435860  .00002915  00000-0  27659-3 0  9991
2 40037  97.9647 229.1031 0013148  38.3914 321.8238 14.94295644614131
Epoch: 2025-10-14T21:27Z
TLE epoch observation values (Epoch: 2025-10-14T21:27:52.583Z)
Latitude
-0.00007°
Longitude
-116.54222°
Altitude
580.405 km
Speed
7.574 km/s
True Right ascension
15h 16m 24s
True Declination
0° 00' 00"
Sunlit
Object was in daylight at epoch
Visualization orbit readout
Latitude
Unknown
Longitude
Unknown
Altitude
Unknown
Speed
Unknown
Apparent Right ascension
Unknown
Apparent Declination
Unknown
Sunlit
N/A
Visualization observer readout
Local Sidereal Time
09:07:41
Azimuth
Unknown
Elevation
Unknown
Doppler factor
Unknown
Orbital elements
Apogee altitude
590.735 km
Perigee altitude
572.434 km
Semi-major axis
6,959.722 km
Eccentricity
0.00131
Inclination
97.9647°
RAAN
229.1031°
Arg. of periapsis
38.3914°
True anomaly
321.73056°
Mean anomaly
321.8238°
Eccentric anomaly
321.77719°
Mean motion
3.73814 °/min
Orbital period
96.3 mins
BSTAR
0.00027659
Loading maneuver chart data...
Computing Atmospheric mass density...
Loading historical data...
Loading historical data...
Loading historical data...
Loading historical data...
Loading historical data...
Loading historical data...
Loading historical data...

Documentation

Showing up to 5 results
|